Vertical_Velocity
6 8 2 -0 2 -1 -0 -1 1 -1 -1 -0 -1 -1 -2 -2 -1 -2 -0 0 -1 0 2 2 -3 1 -2 -2 -1 -1 2 -0 0 -1 2 1 -1 -2 -1 -1 0 -0 -1
1 14 5 2 1 1 -0 -1 -2 0 -0 -1 -0 -2 -2 -1 -1 -1 -1 -0 2 0 0 -1 -0 1 3 1 3 1 0 0 -1 -0 -2 -2 0 -1 -0 0 0 -0 -2
6 6 -2 5 1 3 -1 0 -0 0 1 -1 1 -0 -2 -1 -0 -0 -1 -1 -1 1 1 -1 1 0 4 1 -0 0 2 0 1 -0 0 -1 -2 -3 -2 -1 -1 -2 -2
7 -1 1 3 0 2 2 1 -0 -0 0 -0 1 1 0 -1 -1 -1 1 1 0 2 -3 -2 1 1 -0 1 1 -0 1 1 -1 -1 -1 -1 -1 -2 -1 -3 -2 0 -1
2 -1 -4 1 5 5 4 0 -1 2 1 3 0 0 -0 -0 -0 1 -1 -0 0 -1 -0 3 -2 -2 3 2 1 -0 1 0 -0 0 -2 -1 -2 -1 -1 -2 -0 -3 -2
-1 -0 -1 0 2 7 4 -1 3 0 -1 1 -1 1 -1 -2 -1 1 -1 -1 1 -2 -0 2 2 2 2 1 1 -0 1 -3 -1 -1 -3 -0 1 -1 -2 1 -1 -2 -1
3 2 -1 -6 9 10 -1 1 1 -1 -1 -1 1 0 -0 1 -1 1 -1 -2 -1 0 -2 -2 2 -5 -4 -1 1 -1 2 1 1 -5 -5 -4 -1 -0 -1 1 1 1 0
-2 1 3 6 -1 -1 -0 0 -1 -2 0 -0 -1 1 4 0 -1 0 1 1 -1 -2 -4 -3 -1 -2 2 1 -4 -1 -2 -2 -1 1 1 -4 -4 -4 -2 -2 -1 -3 0
0 -2 -1 -2 0 -3 1 -1 -4 -0 -3 1 1 6 -2 -2 -1 1 -0 1 -1 -1 -3 -3 -5 -0 -3 -3 4 1 -0 -0 -1 -0 -1 4 3 -2 -2 -4 -5 -5 -7
-1 -0 -3 -2 0 1 -0 2 -2 1 7 1 -1 -0 -1 -1 7 6 1 0 -3 -3 -4 0 1 0 -0 -1 -4 1 3 -5 -1 -1 0 -0 -7 2 4 1 8 9 7
-1 1 -1 -1 -2 3 3 -2 0 3 11 -6 4 -4 -0 2 1 5 1 -1 -2 -1 1 -2 -2 -1 0 -3 0 -2 -7 0 -3 -1 -8 -5 -1 -5 -1 -5 -3 -6 -10
-3 7 2 2 -0 -1 1 -2 1 -1 2 -0 1 -1 2 2 3 0 1 -0 3 0 -2 -4 -2 -2 -5 -1 0 -2 0 0 -1 -3 -6 -3 -1 -1 -2 -4 -2 -5 -3
-3 1 4 2 -2 5 1 -0 0 5 3 -4 2 -1 0 1 2 -1 -0 -0 0 -2 -1 3 -1 -1 -2 -2 2 -1 6 -0 -5 -3 -2 -4 -1 0 -2 0 -1 -3 -3
-2 -0 -5 -2 1 -1 -2 -2 -1 2 -4 2 -2 2 1 -0 2 -0 -1 1 1 -1 1 1 1 -2 -4 1 0 -2 3 -5 -1 -4 -3 2 -1 -4 -1 0 2 -0 -1
-0 1 2 -2 -3 -0 -1 1 -0 -0 2 1 4 1 2 -1 1 2 4 -0 0 1 0 5 -3 1 -3 1 4 -0 -7 4 -5 -0 -2 -2 -0 -0 -1 -2 -2 -0 -1
2 2 2 -3 3 1 -0 -1 -2 -1 1 2 4 3 1 1 1 0 -0 -1 -4 0 -1 -3 -1 0 -2 1 4 -4 -4 -0 -1 -1 1 -1 -2 2 0 -0 -1 -2 -2
-3 -2 1 6 1 1 -0 0 0 -3 0 -1 -0 -1 -1 -1 0 2 1 -2 0 -5 -5 6 7 11 -0 2 7 -8 -4 -2 0 3 4 -4 -0 2 -0 0 1 -1 0
-2 -3 -4 -2 -2 0 -2 -1 -1 2 1 1 2 -3 1 -2 1 -1 2 5 1 5 -1 -6 4 14 4 3 -2 2 -4 3 4 -9 10 0 2 2 2 1 1 -1 -0
-2 -3 1 -1 -3 -4 -5 -3 -2 -1 -0 1 -1 -1 3 0 3 7 7 1 4 -2 3 -0 10 8 -4 -3 0 -3 1 1 2 -2 -1 4 1 4 3 2 0 -0 -2
-2 -1 -1 -1 1 -2 -2 -0 -0 -1 -1 2 0 -3 -0 2 1 -1 6 3 -0 -1 -1 6 -2 -1 -1 2 -1 1 2 -3 2 -1 -4 3 -2 5 1 1 -2 -2 -1
0 -0 -1 1 2 0 0 1 -1 1 0 -1 -0 -2 0 -2 -2 10 1 10 4 3 3 0 0 -1 4 -1 3 -2 -1 -5 -5 4 3 -1 0 5 3 -1 5 0 -0
-4 -2 -1 -2 -3 -1 2 1 -0 2 1 1 3 3 2 -1 0 3 -1 -3 -0 -5 5 -0 5 2 4 0 5 -0 2 -1 3 -1 -1 2 -5 -1 1 -5 2 -0 -3
-1 1 -1 -2 -1 -1 1 2 -2 -2 1 -1 1 3 -0 0 9 0 4 2 3 5 -3 -0 4 0 -3 5 8 -2 0 1 2 3 -8 2 3 3 -4 -2 4 0 0
-2 -1 -0 -0 -0 -0 -1 4 0 -3 1 3 0 2 1 1 4 -2 5 -2 -0 -1 18 -4 -2 -4 -0 16 19 1 -0 1 6 3 -1 -5 1 -0 -2 3 9 2 5
3 0 -1 1 1 1 3 1 -2 -1 0 2 1 0 0 -1 -0 -1 -2 -1 2 3 2 9 -4 1 7 -8 0 1 -2 -2 -1 -1 2 -11 4 -1 -4 5 4 -2 5
2 0 2 -0 6 3 3 2 -1 -2 -3 -0 2 1 0 -2 1 0 3 2 1 -2 13 -5 1 18 24 15 7 8 3 -1 -2 3 -3 6 6 -7 -0 8 6 -0 2
Height
5760 5763 5767 5771 5776 5782 5785 5789 5791 5793 5795 5796 5798 5798 5799 5800 5800 5801 5802 5804 5806 5809 5810 5813 5815 5816 5816 5818 5818 5819 5820 5820 5819 5818 5817 5817 5816 5815 5814 5813 5812 5811 5810
5755 5760 5763 5767 5771 5775 5780 5784 5787 5789 5791 5793 5794 5794 5795 5795 5795 5796 5797 5800 5802 5805 5808 5808 5811 5812 5814 5815 5815 5815 5816 5816 5815 5813 5812 5811 5811 5810 5809 5808 5807 5806 5804
5751 5755 5758 5761 5767 5771 5775 5779 5782 5785 5786 5788 5790 5790 5791 5791 5792 5793 5794 5796 5799 5801 5803 5807 5807 5809 5810 5812 5812 5811 5811 5810 5810 5810 5808 5807 5806 5804 5803 5802 5801 5800 5798
5748 5751 5754 5757 5760 5764 5770 5774 5777 5780 5782 5784 5784 5785 5786 5787 5787 5787 5789 5791 5793 5796 5799 5802 5804 5805 5806 5806 5806 5806 5806 5806 5805 5804 5803 5801 5799 5798 5797 5796 5795 5794 5791
5743 5744 5747 5752 5755 5760 5764 5768 5772 5775 5776 5780 5778 5780 5781 5782 5782 5783 5785 5787 5789 5791 5794 5797 5799 5801 5801 5801 5801 5801 5801 5801 5799 5798 5796 5795 5793 5792 5790 5789 5788 5787 5784
5738 5740 5742 5746 5749 5756 5759 5763 5767 5769 5771 5774 5773 5775 5776 5777 5777 5778 5779 5781 5783 5787 5789 5791 5793 5795 5795 5795 5796 5796 5795 5794 5792 5792 5790 5788 5786 5785 5784 5783 5781 5779 5777
5735 5737 5738 5741 5748 5753 5755 5759 5762 5764 5767 5767 5770 5770 5771 5771 5771 5772 5774 5776 5778 5781 5784 5786 5788 5788 5788 5790 5790 5790 5789 5788 5787 5784 5782 5780 5779 5778 5776 5775 5773 5770 5769
5734 5737 5740 5744 5747 5750 5754 5757 5758 5760 5762 5763 5764 5765 5766 5766 5766 5767 5769 5771 5773 5776 5778 5779 5781 5782 5784 5784 5782 5782 5782 5780 5779 5778 5776 5774 5772 5770 5767 5765 5764 5761 5758
5732 5734 5737 5740 5744 5747 5749 5752 5753 5755 5756 5756 5758 5760 5760 5762 5761 5761 5762 5765 5767 5769 5772 5774 5775 5776 5776 5775 5777 5776 5774 5772 5770 5769 5767 5766 5764 5762 5759 5757 5755 5752 5747
5729 5731 5734 5737 5740 5742 5745 5746 5747 5750 5752 5750 5751 5753 5754 5758 5759 5759 5759 5760 5761 5764 5767 5768 5769 5769 5769 5768 5765 5765 5765 5762 5761 5760 5758 5756 5755 5752 5751 5748 5745 5741 5738
5723 5726 5729 5731 5734 5737 5739 5740 5742 5744 5746 5744 5747 5748 5749 5752 5753 5755 5756 5757 5758 5758 5760 5761 5763 5763 5763 5761 5759 5757 5755 5754 5753 5750 5749 5746 5744 5742 5740 5736 5732 5728 5724
5719 5722 5724 5727 5728 5730 5732 5734 5736 5737 5739 5740 5741 5742 5744 5747 5748 5748 5750 5752 5752 5753 5753 5753 5754 5755 5754 5752 5750 5749 5747 5744 5743 5741 5738 5736 5733 5730 5727 5723 5719 5715 5712
5713 5717 5718 5720 5723 5725 5726 5728 5730 5732 5733 5733 5736 5739 5741 5743 5744 5745 5745 5746 5746 5746 5747 5749 5747 5746 5743 5741 5739 5738 5736 5735 5733 5729 5726 5724 5721 5717 5715 5711 5707 5704 5698
5711 5714 5712 5713 5715 5718 5720 5721 5723 5725 5727 5729 5731 5734 5735 5737 5739 5739 5739 5740 5739 5738 5739 5740 5738 5735 5733 5731 5730 5728 5726 5724 5720 5717 5715 5713 5710 5706 5702 5699 5694 5689 5684
5712 5712 5713 5712 5712 5714 5715 5716 5718 5720 5722 5725 5726 5726 5729 5731 5731 5731 5731 5731 5730 5730 5730 5731 5727 5726 5723 5721 5720 5718 5716 5714 5709 5707 5705 5700 5698 5693 5688 5684 5679 5675 5670
5709 5709 5710 5710 5711 5710 5710 5711 5713 5715 5717 5720 5722 5721 5722 5724 5723 5723 5722 5721 5720 5719 5718 5719 5717 5715 5712 5710 5708 5706 5703 5701 5698 5695 5691 5689 5682 5679 5674 5670 5665 5660 5654
5706 5706 5706 5707 5706 5706 5708 5708 5710 5709 5710 5712 5713 5714 5715 5716 5715 5714 5714 5712 5711 5708 5706 5707 5706 5704 5701 5698 5697 5692 5690 5688 5684 5681 5679 5675 5669 5665 5660 5655 5651 5645 5638
5701 5701 5701 5701 5702 5703 5703 5703 5702 5705 5704 5705 5706 5705 5706 5707 5707 5706 5703 5701 5698 5696 5694 5693 5693 5692 5689 5686 5684 5681 5678 5676 5672 5668 5666 5660 5655 5651 5645 5640 5634 5627 5621
5694 5694 5695 5696 5695 5695 5695 5696 5697 5696 5696 5695 5695 5697 5697 5697 5696 5695 5693 5690 5687 5683 5680 5681 5682 5681 5677 5674 5671 5667 5664 5660 5657 5653 5650 5645 5641 5635 5629 5623 5616 5609 5603
5688 5688 5688 5688 5689 5688 5689 5689 5688 5688 5686 5684 5683 5683 5685 5686 5685 5683 5680 5677 5674 5671 5669 5670 5669 5666 5664 5661 5656 5653 5649 5645 5642 5637 5634 5630 5625 5618 5612 5605 5598 5590 5584
5680 5679 5679 5680 5680 5679 5680 5679 5677 5677 5676 5674 5672 5673 5674 5675 5673 5670 5667 5666 5663 5662 5661 5658 5656 5654 5650 5645 5642 5638 5634 5630 5626 5622 5617 5613 5607 5602 5595 5588 5579 5571 5564
5671 5670 5670 5670 5670 5670 5670 5668 5666 5665 5665 5664 5664 5664 5663 5662 5661 5660 5657 5655 5653 5650 5650 5645 5644 5639 5636 5632 5628 5624 5620 5616 5611 5606 5601 5596 5589 5584 5577 5568 5561 5552 5542
5661 5661 5660 5659 5659 5659 5659 5658 5655 5654 5654 5653 5652 5653 5652 5651 5651 5649 5647 5644 5642 5640 5637 5634 5630 5626 5621 5616 5612 5609 5604 5600 5595 5588 5583 5579 5571 5565 5557 5549 5541 5531 5521
5652 5651 5650 5649 5648 5648 5648 5647 5645 5642 5643 5643 5641 5640 5640 5639 5639 5636 5636 5633 5630 5627 5626 5618 5616 5610 5607 5602 5596 5592 5588 5582 5576 5570 5561 5559 5552 5548 5540 5530 5520 5509 5499
5642 5641 5639 5639 5638 5637 5637 5636 5634 5632 5632 5631 5630 5629 5628 5626 5625 5623 5622 5620 5616 5613 5612 5607 5602 5594 5590 5590 5584 5577 5570 5564 5558 5551 5543 5537 5532 5527 5520 5511 5499 5488 5478
5631 5630 5628 5627 5626 5625 5626 5624 5623 5621 5619 5618 5617 5615 5614 5612 5610 5608 5606 5604 5601 5599 5593 5591 5585 5581 5574 5569 5563 5557 5551 5545 5537 5531 5522 5516 5509 5500 5501 5490 5479 5466 5456